Retour au catalogue

SCOUT A R/B

ActifPO
NORAD 1865·ROCKET BODY·🇺🇸 United States

Lancé Dec 22, 1965 depuis Vandenberg Space Force Base

Loading…

Prochains Passages (prochaines 24 heures)

TLE

FraisSource: Space-Track

Époque: Sep 14, 2026, 08:10 UTC

1 01865U 65109B   26257.34068685  .00000107  00000-0  90054-4 0  9993
2 01865  89.0695 240.2891 0113728  76.3104 285.0693 13.76848662 45900

Suivez SCOUT A R/B en temps réel avec AllMySat

Download on the App Store